Theta_e
338 336 341 348 354 355 355 354 349 350 345 341 340 341 344 346 348 343 337 334 335 337 338 336 338 336 339 339 340 340 338 333 332 334 331 331 331 330 330 331 332 333 340 340 338 339 339 335 337
340 343 349 351 356 358 355 352 354 350 343 341 342 347 350 349 345 338 335 333 335 337 337 336 338 338 337 337 338 338 336 331 339 333 339 339 332 330 330 330 336 338 339 336 335 338 339 343 342
347 349 350 351 353 357 356 353 353 346 343 341 349 349 348 346 342 335 333 333 335 337 335 337 339 340 339 336 338 338 333 337 338 335 339 339 331 327 326 331 328 339 334 338 336 336 338 343 344
348 349 350 357 356 351 351 351 349 347 345 349 348 348 343 345 336 334 331 331 333 334 335 339 340 340 339 339 338 335 336 341 334 336 338 339 340 324 338 341 338 332 335 337 333 334 339 342 343
348 350 353 356 355 349 349 351 350 350 351 349 349 345 340 341 338 332 331 331 333 335 338 341 340 338 334 338 338 334 341 339 333 337 337 338 338 332 334 337 336 336 336 333 334 338 341 342 342
351 350 356 358 355 350 349 350 351 351 349 348 345 346 346 345 336 333 331 333 338 338 341 341 337 335 336 341 342 342 341 336 338 337 337 338 338 337 337 338 337 337 332 333 338 341 341 341 340
349 351 356 354 354 352 348 347 352 352 349 348 347 348 346 343 335 333 333 338 341 341 341 336 341 340 342 342 340 340 342 335 338 339 337 337 338 339 337 337 337 337 330 337 342 342 342 340 338
349 348 352 351 355 354 347 348 349 352 349 348 346 346 346 341 334 334 338 341 342 341 336 337 342 339 338 342 342 341 342 342 338 336 337 335 337 338 338 339 337 332 330 337 341 342 341 340 339
346 350 350 351 354 351 349 351 348 350 349 351 351 345 344 337 335 338 341 342 342 339 336 340 340 341 341 344 343 340 340 336 335 336 341 339 332 336 336 337 337 333 328 334 340 340 340 340 341
344 346 349 348 349 350 348 346 348 351 350 348 347 345 341 336 340 342 341 342 338 332 335 334 337 333 336 342 341 340 335 335 337 338 337 336 332 336 337 337 338 333 329 334 338 340 341 342 341
343 348 344 351 349 348 348 345 348 350 352 348 347 346 339 344 345 341 341 337 330 329 332 333 332 330 332 338 337 337 334 339 339 339 338 337 332 334 336 336 335 332 331 332 337 341 340 341 340
336 340 346 349 350 348 346 348 345 347 350 348 346 344 345 346 344 341 339 335 328 330 332 333 330 333 334 335 337 335 337 340 342 342 341 337 334 332 334 334 334 334 335 338 340 340 340 341 341
334 334 338 348 347 347 348 350 350 350 351 348 347 347 346 346 344 341 337 335 329 331 332 330 334 336 336 337 337 336 342 343 344 344 341 339 337 337 335 334 335 337 336 338 338 339 341 341 341
333 333 335 347 347 349 350 349 350 352 351 349 347 347 346 347 346 344 342 336 328 332 330 335 336 334 336 337 340 340 343 344 344 342 342 342 341 341 338 339 340 338 337 338 339 341 340 342 342
333 331 334 344 347 348 350 352 352 349 349 349 347 346 347 347 347 345 345 339 330 331 330 335 334 337 337 340 342 341 342 340 343 343 343 344 342 338 340 342 342 336 340 342 341 342 341 342 341
324 322 322 343 348 350 350 352 350 350 351 350 348 347 346 347 346 345 346 342 335 333 335 336 337 341 341 340 341 342 345 343 343 344 345 344 344 342 342 341 339 337 341 342 342 342 342 342 339
323 328 323 347 349 351 353 352 351 349 352 353 348 347 347 346 346 346 347 342 333 339 337 339 342 343 344 346 346 345 345 346 346 346 347 343 344 342 342 342 339 341 342 341 341 342 342 340 340
329 325 324 325 346 350 353 350 350 351 352 352 350 348 347 346 346 346 347 344 339 340 337 340 341 343 344 346 346 345 347 347 347 347 346 345 344 344 342 342 340 340 340 342 341 341 341 339 341
324 324 325 324 338 349 350 348 349 350 351 350 350 349 348 347 347 347 346 346 341 343 341 341 342 343 344 345 345 345 344 347 347 346 347 344 344 343 342 343 341 339 342 342 342 341 341 340 341
325 325 325 323 325 326 328 342 348 348 350 350 349 348 348 347 347 347 347 345 343 343 344 343 343 343 343 343 344 343 343 345 345 347 346 344 344 345 344 343 342 341 342 341 342 342 341 341 342
324 324 324 325 325 346 347 345 350 346 348 350 349 348 347 347 347 347 346 345 343 341 345 344 345 344 343 343 346 345 345 346 346 347 347 346 344 345 346 344 344 344 344 341 340 342 341 341 340
327 323 324 324 320 320 332 325 345 348 347 347 350 348 348 347 347 347 345 344 345 342 342 344 345 344 343 344 345 344 342 343 344 346 348 347 344 346 347 344 343 345 344 342 340 341 341 339 340
326 322 322 322 319 318 321 319 321 345 349 347 346 349 348 348 347 346 348 345 345 344 341 342 344 345 343 343 344 344 343 343 345 346 347 346 345 342 345 343 344 344 343 342 341 339 341 338 337
322 318 315 313 314 318 319 318 316 343 340 344 345 345 348 349 349 348 346 346 346 343 341 342 344 344 343 343 341 340 341 339 344 346 347 348 346 345 343 348 344 345 345 342 340 339 340 338 337
317 316 318 319 318 319 313 317 331 330 333 335 335 338 346 347 348 349 347 344 345 344 342 342 343 344 344 343 341 337 334 335 341 345 344 347 346 347 342 344 346 343 343 343 345 338 338 341 337
317 316 318 321 318 319 316 318 330 335 336 337 340 341 339 344 348 347 348 346 345 345 343 342 342 343 343 343 342 340 337 334 338 343 343 345 346 347 343 342 345 348 341 342 345 342 341 342 340
316 313 314 315 314 319 318 325 324 335 335 335 335 336 338 341 344 347 347 347 345 345 344 343 341 342 343 343 343 341 339 333 334 340 340 344 345 347 346 346 343 345 347 341 344 343 343 342 342
311 312 317 314 320 324 320 333 338 336 336 335 334 335 338 341 342 347 347 348 346 345 344 344 342 342 342 343 343 342 340 336 332 337 339 343 342 344 346 346 347 342 344 342 339 343 346 342 340
310 310 310 312 313 319 325 335 333 335 334 333 332 334 336 342 343 344 346 347 347 344 343 344 344 343 342 342 343 343 342 340 334 332 332 339 342 343 346 346 347 348 345 345 346 345 341 341 341
310 311 308 317 317 313 322 330 330 331 332 332 330 331 335 339 342 344 344 346 346 344 343 343 344 344 345 343 343 343 343 343 341 333 330 331 339 344 347 346 346 347 347 348 348 348 347 343 343
Wind_Speed
6 6 5 2 2 1 1 2 1 4 5 11 27 6 7 6 2 3 26 35 33 29 24 21 18 17 14 11 10 10 9 7 7 8 8 9 9 9 10 9 9 9 9 10 10 11 11 14 14
7 5 1 1 1 2 2 2 1 3 13 28 13 14 3 3 4 18 36 34 32 28 24 20 17 15 13 11 10 9 8 8 9 8 9 9 8 9 10 10 10 10 11 11 11 11 12 13 13
9 3 2 2 2 1 3 6 7 11 26 27 7 8 3 1 10 39 37 34 31 26 22 19 15 12 14 12 10 9 8 9 8 9 8 7 8 8 10 10 11 10 10 11 11 11 12 11 11
6 1 2 1 2 0 2 10 4 15 17 4 15 7 5 3 33 27 37 33 29 25 21 18 15 13 13 12 10 9 9 9 9 9 8 8 8 9 13 12 10 12 12 12 12 12 13 12 11
5 0 1 1 3 2 4 5 8 10 7 9 3 5 9 11 18 37 35 30 27 24 21 17 14 13 12 12 10 10 10 9 10 9 9 9 10 10 12 12 12 11 13 15 16 15 14 12 11
1 1 1 2 1 2 2 10 7 3 8 11 11 10 6 10 27 36 33 29 23 22 19 16 14 12 11 11 12 12 11 10 10 10 10 10 10 11 11 11 11 12 14 16 18 16 13 11 11
0 1 1 1 3 3 1 5 8 9 8 5 13 5 13 17 33 34 30 26 22 19 18 16 14 12 11 11 12 12 12 11 10 10 10 10 11 11 11 11 11 12 14 17 17 15 13 11 12
2 2 3 1 2 1 4 2 8 6 4 12 16 7 11 28 34 33 26 23 21 20 17 15 14 12 12 12 12 13 13 11 10 10 10 10 11 11 11 11 11 11 13 15 15 14 12 12 12
3 1 1 1 5 2 6 5 9 9 10 2 3 16 24 38 34 31 27 23 22 19 17 16 14 14 13 14 12 13 13 12 11 12 11 11 12 12 11 11 11 10 12 15 14 12 12 13 10
1 2 3 0 6 9 11 9 6 3 8 10 18 23 36 38 34 31 29 27 24 21 17 15 14 13 13 14 14 14 14 13 13 12 13 11 12 14 13 11 10 10 11 15 13 11 11 9 10
5 3 3 5 10 17 13 8 4 3 0 5 26 34 40 36 33 31 28 25 23 20 17 16 15 14 14 13 14 14 14 13 12 12 11 10 11 12 13 13 12 11 11 12 11 11 9 8 7
2 11 4 10 15 14 12 15 7 8 5 9 28 38 38 35 33 31 28 26 24 20 18 16 16 15 15 14 15 15 13 12 11 10 8 8 10 11 12 12 11 12 12 12 11 8 7 7 6
3 6 8 11 22 14 13 10 6 13 9 19 30 33 35 32 29 27 24 23 22 20 19 18 17 16 16 17 16 16 12 11 11 9 8 8 8 10 11 12 12 10 11 12 7 7 6 5 6
4 10 8 12 18 15 15 7 10 9 13 27 32 34 35 33 30 28 24 22 22 20 20 20 19 17 18 19 18 15 12 11 9 8 8 7 8 5 9 9 9 9 11 10 8 8 7 3 3
4 3 1 5 15 6 10 6 6 19 16 30 30 30 35 34 31 29 24 21 22 21 21 23 21 20 19 19 17 14 11 10 8 6 5 5 4 5 7 7 10 12 9 12 13 9 6 3 5
3 4 2 2 9 3 7 2 8 14 23 27 32 32 29 33 32 30 25 21 21 23 23 24 26 22 19 17 15 14 11 9 7 4 3 5 5 6 7 8 12 10 14 14 12 10 9 6 6
6 3 3 2 10 3 6 1 6 13 18 24 30 32 31 32 30 31 29 23 25 25 26 28 26 23 20 15 13 12 10 8 4 3 1 4 5 7 7 8 12 13 14 11 11 9 7 7 4
2 4 2 3 7 4 5 7 4 14 17 21 28 32 31 34 34 32 31 28 29 28 28 28 25 22 18 14 13 15 12 10 8 5 1 3 8 7 7 10 11 13 13 11 10 9 7 5 3
4 4 1 2 4 4 9 7 8 15 14 18 23 30 31 33 37 31 31 32 31 31 30 29 27 22 20 18 16 15 13 9 8 6 4 4 8 7 9 9 10 12 12 11 11 9 8 5 3
2 3 2 3 1 7 3 3 4 11 5 18 22 25 29 28 31 34 33 34 35 34 33 31 28 24 20 18 17 15 11 10 8 7 6 4 7 5 8 7 10 8 9 10 9 6 5 5 3
2 4 3 4 3 2 2 3 3 2 5 11 20 22 22 29 34 37 36 38 39 37 36 34 31 26 22 19 20 18 13 12 10 10 8 6 6 6 5 7 7 7 8 11 8 6 4 5 2
2 7 5 2 2 2 2 3 1 3 5 6 11 18 25 27 31 40 37 39 43 40 37 35 34 29 24 24 26 22 17 15 13 10 9 6 5 8 6 8 7 6 8 10 7 6 5 5 4
8 6 6 4 3 2 2 4 5 1 7 11 15 19 25 30 32 34 44 40 41 43 41 37 36 34 25 25 28 26 23 18 14 13 12 10 8 7 7 9 8 7 9 11 9 9 8 7 7
4 5 7 5 3 2 2 4 5 4 7 7 5 19 26 34 30 36 37 43 40 42 42 40 37 37 28 26 26 28 26 23 20 18 15 13 11 9 11 9 9 9 9 8 11 11 12 11 11
5 6 3 3 2 5 5 4 1 7 6 7 10 13 30 36 33 30 36 42 44 43 46 44 40 38 34 29 27 25 26 26 24 20 17 14 14 12 13 11 9 8 10 11 10 12 13 11 12
2 6 5 6 5 4 2 5 5 5 11 17 15 17 14 34 40 41 37 41 43 45 48 48 45 41 37 33 29 25 24 27 27 22 21 18 15 13 11 12 11 8 8 11 11 11 13 13 14
1 5 2 7 3 4 1 4 2 15 16 26 27 24 27 21 38 43 44 40 42 44 45 48 47 44 41 35 31 29 27 26 29 26 24 22 17 15 14 13 11 12 10 10 11 11 12 14 16
7 1 3 3 4 3 3 3 3 17 20 20 25 30 35 9 28 31 34 44 41 42 44 44 48 47 42 39 34 30 28 27 27 30 27 25 22 20 17 16 15 12 12 10 10 12 11 12 15
6 5 5 4 3 5 4 2 6 9 13 15 21 27 32 29 7 18 23 28 34 37 41 46 47 46 46 43 39 35 31 28 27 28 30 28 24 22 18 18 18 17 15 13 12 11 12 13 14
5 2 2 4 3 2 3 1 6 10 15 17 21 25 33 33 26 13 8 12 22 33 36 41 45 46 44 46 43 39 34 31 28 29 29 30 30 26 21 19 18 19 18 16 15 17 16 15 16
Wind_Direction
162 147 145 248 272 175 232 280 190 121 124 151 148 142 178 95 181 187 147 160 161 156 154 152 147 146 144 141 134 128 128 125 121 126 137 143 151 157 164 164 159 149 131 127 120 114 112 109 108
151 142 171 286 302 32 310 229 77 207 138 145 151 131 123 102 120 141 148 158 162 159 156 154 151 155 157 158 144 137 138 138 137 134 131 126 131 142 148 156 150 141 144 140 132 127 120 115 115
143 130 3 40 31 305 310 35 323 123 141 152 111 93 73 82 140 144 152 156 163 162 158 154 154 159 167 168 155 147 147 138 132 129 122 123 120 129 127 129 145 146 145 141 141 132 124 118 103
151 293 285 198 196 55 284 311 220 116 122 130 115 71 66 153 139 148 151 158 161 160 158 155 149 152 154 157 154 154 144 138 130 126 125 124 111 109 124 116 123 123 127 145 132 130 126 120 104
156 304 268 353 81 29 329 337 221 132 92 115 103 90 108 136 154 150 152 158 161 160 158 157 157 157 153 156 160 151 145 139 130 125 119 119 109 106 124 115 118 133 134 132 131 129 124 118 108
104 324 6 33 97 334 12 20 342 321 88 120 102 106 121 147 157 153 153 156 160 160 157 159 155 151 151 156 147 146 147 137 132 121 120 115 111 117 114 118 117 115 125 129 130 129 122 107 104
88 15 26 176 173 293 107 20 354 346 110 107 133 93 137 154 161 155 156 156 159 159 159 160 151 153 158 155 150 149 144 135 130 128 125 124 113 116 119 116 120 118 125 135 134 125 117 106 103
232 121 323 260 194 244 91 86 344 360 16 126 143 155 160 160 161 158 159 160 160 161 161 158 155 153 158 150 148 148 143 138 133 132 126 128 127 123 121 118 117 123 132 139 132 122 111 103 102
266 357 290 247 167 110 87 79 349 323 170 90 192 157 164 158 159 161 162 163 163 164 163 161 160 153 154 149 149 147 148 145 135 132 126 132 133 128 126 123 118 120 133 141 134 126 112 112 109
169 132 220 213 128 146 138 108 301 99 153 63 100 146 155 159 162 166 168 168 168 170 169 165 164 160 160 152 155 154 153 148 145 129 121 126 136 140 137 133 126 126 135 147 140 127 117 100 91
197 219 213 113 129 141 147 136 110 293 104 172 142 147 159 163 169 170 171 173 168 169 170 167 165 166 166 161 157 159 153 147 140 126 122 125 135 144 146 144 139 135 136 143 142 131 111 93 92
230 236 247 132 152 152 161 141 162 199 83 138 161 161 163 168 172 172 174 179 171 171 168 167 164 166 162 163 155 161 159 155 150 130 125 123 137 139 148 146 141 140 140 145 143 142 128 94 94
206 278 239 169 164 166 158 180 177 199 162 159 160 167 168 173 175 177 179 180 176 174 169 168 166 168 165 160 159 157 144 146 142 136 137 119 132 138 144 146 142 146 155 155 157 162 149 117 96
225 238 253 187 175 160 173 179 163 191 174 164 164 173 176 179 181 181 182 182 183 178 172 168 168 167 165 160 160 157 156 158 156 149 151 143 155 168 146 159 169 160 167 186 177 170 158 128 85
267 302 346 160 166 176 173 151 221 173 170 162 165 173 182 184 188 188 183 184 183 179 174 169 165 162 164 164 164 166 154 165 152 145 162 158 147 157 200 184 175 176 176 178 166 170 172 163 131
36 63 44 341 156 219 170 216 194 171 171 169 173 176 179 192 193 191 191 192 188 182 177 170 166 158 159 162 165 168 167 165 164 169 124 162 158 154 154 173 175 184 166 163 168 185 176 177 128
19 118 76 101 210 150 213 332 168 193 175 169 177 178 184 191 201 198 193 194 184 180 173 168 168 168 164 167 181 190 195 200 203 191 91 187 148 127 133 155 172 159 166 178 171 173 170 165 151
174 91 3 120 212 232 179 257 149 189 186 175 177 179 185 193 204 202 201 197 191 183 178 177 175 176 181 186 194 201 206 207 219 210 230 196 171 152 137 149 158 153 159 165 183 185 177 172 232
119 104 4 290 192 184 210 248 188 188 183 175 181 183 188 195 202 210 209 205 200 195 189 187 187 187 187 185 190 200 197 199 199 190 214 206 173 166 164 148 153 161 164 167 155 146 155 172 194
121 102 287 290 283 191 345 327 164 174 196 189 189 189 192 193 201 210 215 211 207 202 201 196 197 200 195 193 195 204 209 201 190 187 196 189 204 178 163 175 172 173 178 177 164 168 192 209 214
116 159 199 212 21 19 73 356 115 141 157 192 203 202 196 194 202 210 216 215 213 210 207 206 202 206 207 201 204 211 207 206 202 200 198 209 204 190 187 183 180 173 172 187 181 170 175 179 209
186 208 185 221 91 229 127 285 1 170 212 220 218 209 209 205 206 213 220 221 217 215 212 213 209 207 212 208 211 218 224 216 213 209 206 214 210 208 208 197 199 204 197 184 192 193 196 203 194
216 157 177 178 168 86 320 77 267 166 218 225 220 225 215 212 213 215 220 225 223 219 217 216 214 213 214 214 218 223 224 226 224 223 215 212 219 216 206 193 215 221 205 202 210 224 221 224 241
107 76 43 51 89 50 229 124 354 11 325 336 252 244 239 222 212 219 221 223 227 220 218 217 216 215 216 214 221 228 226 226 226 223 221 220 229 226 217 213 218 236 223 225 225 224 227 235 238
89 82 28 40 52 199 5 68 211 307 351 358 325 293 239 234 226 219 217 219 221 223 220 218 218 218 216 217 219 224 226 227 225 223 223 226 233 237 224 217 217 234 237 230 230 223 224 240 239
84 150 151 167 171 189 63 171 187 25 10 357 357 337 290 236 222 223 220 221 223 224 224 220 220 221 220 219 222 225 230 224 222 224 224 225 233 237 229 222 233 239 239 223 235 232 229 240 240
209 66 188 106 5 84 220 330 50 2 7 5 2 358 347 245 226 221 220 219 223 226 227 224 224 223 223 223 224 227 229 226 225 226 225 227 229 224 232 236 240 239 239 238 239 233 242 246 237
88 6 66 11 128 156 33 47 321 1 359 356 2 5 1 327 225 215 213 218 222 229 230 229 228 227 228 225 226 229 229 227 228 229 232 230 228 229 236 243 246 239 235 238 248 248 251 249 241
5 9 23 110 93 149 134 298 9 2 9 3 2 16 22 35 68 213 217 223 224 226 228 232 230 229 230 230 229 229 230 228 228 229 232 232 231 228 239 246 242 243 241 243 253 263 263 258 252
42 56 113 122 217 54 117 158 8 27 14 12 21 26 40 49 58 79 176 200 211 220 224 229 232 231 233 233 231 232 234 230 230 231 232 230 231 235 238 238 241 232 239 246 258 264 267 268 259